Location: Unspecified
(52.0000°N, 4.4000°E)
Time: 06:42:32
(UTC+00:00)

Cosmos 1933 - Pass Details

Date: 14 May 2025
Orbit: 516 x 524 km, 82.5° (Epoch: 14 June)

Event Time Altitude Azimuth Distance (km) Brightness Sun altitude
Exits shadow 21:06:45 - 188° (S) 1,811 5.5 -11.8°
Reaches altitude 10° 21:06:52 10° 188° (S) 1,762 5.5 -11.8°
Maximum altitude 21:10:44 86° 102° (ESE) 533 3.2 -12.2°
Drops below altitude 10° 21:14:38 10° 11° (NNE) 1,773 6.6 -12.5°
Sets 21:16:47 0° 11° (NNE) 2,665 7.5 -12.7°
